User: anonymous   Login
Location: Unspecified
(0.0000°N, 0.0000°E)
Time: 12:38:30
(UTC+02:00)
Language:

Delta 2 Rocket - Orbit

View from above orbital plane
View from above orbital plane
View from above satellite
View from above satellite

Ground track
Ground track

The orbit data is extracted from the following two-line orbital elements,

1 20453U 90008B   15088.04729543  .00006162  00000-0  37257-3 0  9999
2 20453 035.6282 301.2884 0309585 282.5833 074.0426 14.77928403327874
Epoch (UTC): 29 March 2015 01:08:06
Eccentricity: 0.0309585
inclination: 35.6282°
perigee height: 419 km
apogee height: 853 km
right ascension of ascending node: 301.2884°
argument of perigee: 282.5833°
revolutions per day: 14.77928403
mean anomaly at epoch: 74.0426°
orbit number at epoch: 32787

The dashed part of the orbit path shows where the satellite is in the earth's shadow,  

DLR